Location: Joplin
(37.0842°N, 94.5131°W)
Time: 00:57:21
(UTC-05:00)

EO-79 - Visible Passes

Search period start: 21 May 2019 00:00
Search period end: 31 May 2019 00:00
Orbit: 592 x 610 km, 97.9° (Epoch: 20 May)

Date Brightness Start Highest point End Pass type
(mag) Time Alt. Az. Time Alt. Az. Time Alt. Az.
21 May ? 02:07:20 10° N 02:09:22 27° N 02:09:22 27° N visible
22 May ? 02:18:57 10° N 02:21:01 25° NNW 02:21:01 25° NNW visible
23 May ? 00:55:22 10° NE 00:55:53 12° NE 00:55:53 12° NE visible
23 May ? 02:30:39 10° NNW 02:32:40 22° NW 02:32:40 22° NW visible
24 May ? 01:06:27 10° NE 01:07:32 16° NE 01:07:32 16° NE visible
24 May ? 02:42:27 10° NNW 02:44:19 18° NW 02:44:19 18° NW visible
25 May ? 01:17:40 10° NNE 01:19:11 20° NE 01:19:11 20° NE visible
25 May ? 02:54:25 10° NNW 02:55:57 15° NW 02:55:57 15° NW visible
26 May ? 01:28:58 10° NNE 01:30:49 24° NNE 01:30:49 24° NNE visible
26 May ? 03:06:46 10° NW 03:07:36 11° NW 03:07:36 11° NW visible
27 May ? 01:40:22 10° NNE 01:42:28 29° NNE 01:42:28 29° NNE visible
28 May ? 01:51:49 10° N 01:54:06 32° N 01:54:06 32° N visible
29 May ? 02:03:20 10° N 02:05:44 32° N 02:05:44 32° N visible
30 May ? 02:14:55 10° N 02:17:22 30° NNW 02:17:22 30° NNW visible
